RH
96 91 91 89 78 58 44 37 31 25 22 17 16 12 8 6 5 3 3 3 2 2 2 2 2 3 3 7 8 61 61 70 100 93 91 76 68 80 74 56 32 32 33 35
92 85 78 69 59 51 42 35 29 25 22 18 13 9 6 5 4 3 2 2 2 2 2 2 2 2 3 4 8 8 42 68 74 100 98 98 88 85 93 74 51 38 37 36
92 92 83 74 61 49 41 34 28 25 18 14 9 6 4 4 3 2 2 2 3 8 19 34 38 41 19 4 5 10 9 44 58 93 100 88 99 90 91 76 63 49 42 40
94 86 77 69 58 51 45 37 28 23 17 11 8 5 3 3 2 2 3 5 11 11 32 30 43 61 27 8 5 12 10 12 60 100 96 98 98 83 75 74 88 65 52 46
86 87 78 71 67 61 43 33 27 19 14 10 8 5 3 3 3 5 10 11 14 34 50 66 80 81 12 11 6 10 12 8 25 79 100 89 85 72 98 94 90 92 86 64
96 93 64 71 65 51 41 29 22 18 13 8 5 4 3 6 14 14 11 19 37 85 94 99 92 44 43 13 7 8 12 8 10 24 50 96 69 88 90 92 94 77 94 89
98 97 96 78 63 52 35 26 21 15 10 6 5 4 4 22 33 34 19 23 55 100 97 100 91 42 56 18 8 8 13 9 8 19 29 44 67 90 87 98 99 90 84 91
97 94 94 78 63 45 31 24 18 12 9 6 5 3 7 26 46 71 63 94 98 98 82 97 99 84 60 15 8 9 13 10 8 9 10 35 44 100 92 98 91 83 85 99
97 96 91 74 53 40 30 22 16 10 7 6 4 3 10 25 42 68 72 100 70 100 66 64 100 78 52 16 8 11 12 11 9 8 8 11 16 28 61 100 77 95 84 90
97 96 90 62 48 39 26 19 11 8 7 5 3 4 17 18 28 61 71 92 100 100 72 55 100 67 41 14 9 12 11 10 8 5 5 5 10 22 31 100 87 94 92 77
100 92 70 57 44 34 22 14 10 9 5 5 3 6 28 24 41 44 63 96 100 91 88 93 99 63 14 8 9 9 7 9 16 15 10 6 18 23 28 56 76 92 84 92
100 87 93 65 42 24 17 10 11 7 5 4 8 13 38 48 54 38 64 98 100 100 98 100 100 66 30 8 8 7 7 8 33 19 24 60 76 96 70 73 81 98 98 80
100 94 90 57 32 20 11 10 7 4 3 5 9 17 50 82 87 88 48 84 100 100 100 100 100 100 44 40 27 8 8 14 35 49 59 70 66 85 93 93 94 82 92 93
100 98 96 46 24 17 8 5 4 3 3 6 17 15 49 92 100 100 49 76 100 100 99 100 100 99 99 94 92 92 78 92 84 70 54 81 95 97 99 96 98 97 93 96
100 97 75 30 21 11 7 4 3 4 4 9 16 16 25 61 97 100 46 78 100 100 100 99 99 100 100 99 99 100 99 99 100 83 98 97 98 98 97 98 98 97 97 98
98 89 50 22 15 9 6 4 4 5 7 24 24 31 26 51 82 88 64 64 97 100 100 100 99 99 100 100 100 100 97 98 98 98 99 98 96 97 98 96 98 98 98 97
98 72 33 16 11 6 6 6 4 3 6 28 46 49 67 70 68 92 73 54 74 100 100 100 100 100 100 100 99 100 100 99 98 97 98 94 90 93 87 87 86 92 92 95
89 55 21 11 7 7 7 4 4 4 8 33 48 56 68 66 54 87 98 56 51 83 83 99 100 100 100 100 100 99 99 98 89 87 82 77 70 72 88 79 74 71 70 69
75 33 15 10 6 6 5 5 4 4 16 38 55 61 59 67 67 56 91 65 51 48 46 66 87 99 98 100 100 100 96 92 84 84 81 80 80 64 49 48 69 76 66 69
45 19 11 7 7 6 6 6 6 6 27 42 74 67 64 50 65 65 66 84 64 38 31 43 45 49 72 73 87 100 100 100 100 97 95 98 92 70 43 37 44 45 43 36
22 12 9 8 7 6 7 7 8 10 12 23 52 83 78 61 62 75 68 49 50 29 33 42 37 47 52 64 66 82 100 100 100 94 76 70 89 84 68 52 22 18 19 22
18 14 10 9 8 9 9 8 9 13 13 18 43 63 88 74 89 91 86 64 57 47 53 50 50 60 60 48 55 58 81 100 100 83 47 40 42 33 23 18 16 15 15 15
18 16 12 10 10 8 9 13 14 22 26 22 25 57 62 91 79 98 100 87 78 77 70 62 82 88 96 59 51 48 67 91 100 96 80 73 74 40 34 30 26 23 20 17
15 14 12 11 11 10 11 13 20 27 33 34 29 31 51 61 88 89 100 100 94 88 94 97 75 91 100 94 71 60 54 54 56 58 65 71 65 51 41 35 31 28 27 25
16 13 11 10 10 10 18 26 31 32 34 33 38 31 54 47 76 94 100 100 100 100 100 100 100 100 100 100 97 85 68 52 46 51 46 43 39 35 33 31 27 23 21 20
14 12 9 8 10 17 20 16 12 11 13 24 44 49 54 61 63 90 99 78 99 100 100 100 100 100 98 100 100 99 90 74 61 49 46 48 44 39 34 29 28 25 24 23
Wind_Speed
34 35 35 35 36 37 39 40 41 40 42 46 46 44 46 53 65 65 71 77 82 86 88 89 89 85 78 68 76 78 81 78 70 71 67 64 60 52 39 37 40 38 36 31
35 35 37 38 37 37 39 40 39 42 43 46 46 44 49 58 62 72 79 85 91 94 92 89 87 90 87 78 74 78 81 84 78 72 67 63 61 51 44 40 40 40 39 35
37 36 38 38 38 37 37 38 39 42 45 46 49 48 52 63 70 79 84 85 82 74 62 48 49 55 66 75 77 80 77 80 83 75 70 65 64 53 50 43 43 42 39 36
36 35 37 37 37 37 36 37 38 41 44 46 51 54 59 68 75 78 75 71 66 53 47 53 47 51 60 64 79 82 79 74 79 76 74 69 54 55 52 46 37 41 39 38
36 36 36 36 36 35 35 36 38 39 42 46 53 58 63 71 71 64 60 64 37 33 50 49 44 46 39 55 70 82 78 71 71 76 73 69 65 61 54 52 44 45 40 40
38 35 34 34 33 34 35 35 37 39 42 46 54 59 63 60 58 58 61 41 35 45 47 38 42 38 29 42 63 80 76 69 67 66 71 70 61 61 59 52 51 49 42 41
34 34 32 33 33 34 34 34 37 40 43 45 51 55 53 45 49 50 51 36 38 39 38 39 36 25 17 25 52 73 72 65 63 55 59 63 65 60 58 55 54 51 47 45
33 31 32 34 33 33 33 34 35 39 42 46 47 47 40 41 39 34 32 38 43 44 30 32 26 16 3 19 52 67 67 61 56 54 47 52 56 66 59 56 57 56 52 48
32 33 32 33 32 31 32 34 35 39 43 47 46 45 32 35 32 24 27 35 36 35 22 25 21 6 16 18 44 54 57 55 54 46 49 49 52 56 62 58 53 56 55 53
33 32 32 33 32 32 31 32 34 37 42 46 46 39 32 33 21 16 24 31 34 38 15 16 16 6 13 26 41 44 47 49 46 42 45 47 50 53 58 64 58 56 59 60
30 31 31 31 31 31 31 31 32 37 41 41 46 31 29 35 31 19 28 37 35 32 12 8 12 2 14 28 35 39 41 39 39 40 45 49 50 53 56 63 63 66 60 66
31 30 30 30 30 29 31 30 30 35 37 36 34 22 28 35 24 20 25 36 33 24 23 6 3 10 18 27 32 34 33 35 41 43 46 46 53 47 56 61 60 64 60 65
31 28 26 26 28 29 30 28 31 34 36 35 30 20 24 26 16 16 26 30 33 28 22 14 11 24 28 27 29 35 37 37 40 41 45 46 45 52 58 58 57 52 59 54
30 27 25 26 27 28 28 29 32 34 34 33 29 18 19 20 15 10 20 30 31 31 22 17 9 19 19 22 30 29 25 26 32 39 48 41 53 62 54 59 53 49 50 48
28 25 24 25 27 27 27 29 32 31 30 31 29 27 24 20 16 11 13 21 27 22 18 16 6 11 27 14 18 18 17 21 21 40 46 29 28 35 44 62 50 47 49 50
25 24 24 25 27 27 28 29 30 28 27 27 27 26 25 24 21 15 11 19 23 18 13 18 15 2 16 29 22 23 19 24 18 31 31 38 37 25 27 31 30 37 32 26
25 25 24 25 26 28 29 30 28 29 24 25 23 24 21 20 23 12 5 15 16 16 14 12 16 11 9 24 27 29 27 25 26 22 16 22 25 25 25 26 26 29 28 30
26 25 24 26 26 29 29 28 28 27 22 21 22 22 19 17 15 17 9 7 12 13 16 14 15 14 6 8 18 17 13 13 12 14 16 18 18 17 18 22 26 26 27 28
25 25 25 26 28 29 28 28 27 26 23 23 22 24 19 17 16 18 15 11 11 15 17 18 15 17 13 7 7 16 18 15 9 8 12 12 15 17 15 19 26 28 32 32
25 25 25 29 29 28 28 26 25 25 24 24 26 26 25 25 21 18 15 13 17 13 12 12 13 17 13 13 13 7 18 19 19 17 16 19 20 19 19 20 23 25 26 28
25 26 27 29 29 29 29 29 27 25 25 25 29 27 23 21 22 18 14 14 15 14 13 15 12 11 5 6 7 6 12 22 19 18 16 15 18 27 25 24 22 21 23 26
25 26 28 29 29 29 30 30 30 27 25 25 29 28 25 19 18 16 15 14 12 14 16 20 17 15 10 8 7 9 8 17 18 19 19 18 18 22 24 24 23 23 24 25
23 26 28 29 30 32 33 31 32 27 26 25 27 29 26 19 18 18 17 17 17 20 20 18 21 20 14 17 17 14 12 11 15 21 22 20 18 17 18 19 21 22 23 25
26 29 29 32 31 34 35 34 33 30 30 32 29 28 29 24 20 20 21 18 18 19 19 21 21 23 18 20 19 18 16 17 15 15 15 19 20 19 19 19 19 20 21 23
28 30 31 31 32 35 34 35 36 37 37 37 34 31 27 27 23 23 23 21 18 13 12 14 21 25 22 22 22 21 20 20 20 20 19 18 19 20 20 23 23 22 23 24
31 31 31 31 34 34 35 36 35 34 32 30 28 26 26 24 26 23 21 20 20 16 12 10 14 23 23 22 20 21 22 23 22 22 23 24 23 23 23 24 25 26 26 26
Wind_Direction
276 277 277 275 275 278 283 285 286 289 292 289 291 290 294 291 296 293 291 288 286 283 278 275 274 272 265 250 241 240 243 241 238 244 245 250 252 254 244 246 238 237 237 234
273 272 273 275 279 282 284 287 289 290 293 295 297 297 300 297 297 295 294 293 291 290 287 284 277 268 261 248 237 235 238 240 239 236 243 243 249 237 234 239 239 238 240 239
272 274 276 278 281 283 285 289 292 295 296 302 302 297 298 305 303 301 301 299 295 294 298 293 286 276 263 243 230 229 231 234 238 239 238 244 227 229 234 224 234 238 241 242
266 268 272 274 277 281 284 288 291 295 300 306 307 303 304 307 305 306 303 296 301 294 292 298 292 291 258 239 221 221 226 228 231 232 236 231 226 243 245 224 227 239 242 245
265 264 267 271 275 280 284 289 293 299 308 310 312 311 312 312 309 305 302 310 305 293 294 303 300 306 280 231 214 212 219 224 225 229 234 238 239 240 232 228 222 228 235 239
261 263 266 271 277 282 286 290 297 305 309 314 315 316 319 315 313 310 315 311 302 319 314 329 309 311 283 220 206 204 212 218 223 223 227 229 233 234 231 233 223 227 230 235
258 258 266 272 277 279 285 295 303 309 312 316 320 322 322 313 320 318 317 312 312 329 325 325 321 320 282 200 203 198 207 214 220 221 227 228 233 233 232 227 225 229 231 235
255 259 266 271 274 281 288 298 306 311 315 315 323 324 317 317 327 322 326 335 332 326 331 335 330 324 326 176 189 195 203 211 217 219 225 229 230 233 235 232 233 221 229 234
255 263 268 271 275 281 291 298 307 313 316 319 324 326 302 316 322 317 322 336 326 336 340 341 343 29 135 157 182 192 203 212 218 218 221 227 232 238 232 234 241 229 229 233
256 261 264 267 274 282 290 301 313 320 322 322 331 322 306 315 310 302 343 354 358 351 342 358 348 32 142 163 180 194 204 216 219 224 229 231 234 234 231 232 239 245 230 233
254 257 263 270 276 285 295 307 319 320 321 324 329 326 318 324 333 318 328 343 359 356 341 27 335 326 170 176 188 198 208 213 222 229 233 233 233 230 225 228 234 239 237 235
249 255 260 270 280 289 299 310 321 320 320 321 320 323 325 324 332 313 313 330 357 3 350 292 199 270 200 199 210 208 218 226 225 233 238 228 226 226 224 228 232 236 241 228
244 252 260 269 278 288 294 312 316 316 320 321 313 317 325 324 330 324 300 319 356 8 341 318 295 236 209 213 224 225 221 230 235 232 229 219 217 223 229 231 235 234 228 237
243 250 257 267 276 287 301 311 313 313 317 317 305 302 312 316 312 323 304 309 344 3 360 350 265 158 218 216 213 215 211 208 216 224 219 222 218 225 225 230 228 235 237 236
245 252 258 268 277 290 300 310 307 311 311 305 302 294 290 312 301 317 316 319 337 10 4 355 347 186 208 206 202 203 208 211 212 211 210 193 213 217 212 220 218 222 230 234
243 252 260 269 280 287 299 303 305 312 304 292 295 289 289 297 307 307 315 330 334 4 12 20 359 48 155 189 196 191 203 210 193 189 189 203 204 199 205 209 205 215 216 216
241 249 256 267 276 288 297 304 312 312 303 286 280 285 290 291 302 287 286 306 328 317 18 27 10 348 213 179 179 177 196 208 226 216 220 234 244 245 244 247 247 251 247 249
241 251 260 269 279 287 299 307 307 310 303 280 281 281 283 285 293 298 267 266 306 310 343 27 22 13 351 235 182 168 177 189 203 218 227 233 244 248 245 246 250 253 253 250
245 254 264 273 279 289 300 304 309 310 298 280 284 282 289 287 292 291 292 233 272 302 319 323 338 27 18 349 277 203 187 186 209 227 220 227 236 228 229 238 243 240 244 245
247 256 265 273 281 291 299 303 304 301 291 276 273 279 283 286 285 284 289 270 274 275 286 295 309 325 338 352 337 278 229 222 227 237 237 236 238 231 232 236 237 237 235 241
248 257 267 274 284 291 299 302 298 290 293 275 265 269 279 276 274 276 284 284 267 262 261 253 267 273 308 345 291 299 243 227 209 221 225 230 233 226 233 239 243 244 246 248
250 261 272 280 288 293 296 296 293 291 286 279 266 267 275 276 265 268 275 278 273 266 260 247 234 233 237 256 263 261 254 233 221 216 217 223 226 228 230 233 237 239 241 243
260 269 278 286 292 296 297 296 293 288 285 282 274 267 265 272 274 261 262 269 268 262 264 250 232 223 234 224 231 235 232 227 231 229 226 233 241 228 226 227 230 231 236 239
269 277 287 291 298 297 296 291 286 283 280 281 278 270 264 261 266 264 255 259 267 270 270 256 246 236 241 238 230 229 233 236 234 231 226 235 244 240 238 239 239 243 244 244
275 283 289 296 298 294 290 286 282 279 278 276 274 267 261 257 256 262 247 247 252 269 274 260 249 239 242 244 239 233 231 238 237 236 236 236 240 243 243 244 243 247 250 254
279 288 295 294 289 288 286 284 282 280 277 273 267 260 255 255 248 254 243 251 246 249 265 269 252 237 236 241 236 237 238 236 235 233 234 239 243 246 248 249 254 257 260 261